When you browse on this site, cookies collect data to enhance your experience and personalize the content and advertising you see.
Visit our Privacy Policy to learn more. By continuing to use the site, you agree to this use of cookies and data.
  • In Hungary
  • List of Countries
  • For 7 days
  • Water Temperature
  • Weather Map
  • News
  • Weather Widgets
  • user-avatar
    Login

    Hourly Weather Cochabamba

    Today, 28 May, Thursday

    Time Temperature Precipitation Wind Pressure Humidity
    00:00 +10°C° 0 mm 0 mps 552 mmHg 41%
    01:00 +10°C° 0 mm 0 mps 552 mmHg 40%
    02:00 +9°C° 0 mm 0 mps 552 mmHg 40%
    03:00 +9°C° 0 mm 0 mps 551 mmHg 41%
    04:00 +9°C° 0 mm 0 mps 551 mmHg 42%
    05:00 +8°C° 0 mm 0 mps 551 mmHg 42%
    06:00 +10°C° 0 mm 0 mps 553 mmHg 40%
    07:00 +12°C° 0 mm 0 mps 554 mmHg 38%
    08:00 +15°C° 0 mm 0 mps 556 mmHg 36%
    09:00 +16°C° 0 mm 0 mps 557 mmHg 31%
    10:00 +20°C° 0 mm 1 mps 558 mmHg 26%
    11:00 +22°C° 0 mm 1 mps 558 mmHg 20%
    12:00 +23°C° 0 mm 1 mps 558 mmHg 20%
    13:00 +23°C° 0 mm 1 mps 558 mmHg 20%
    14:00 +24°C° 0 mm 1 mps 557 mmHg 19%
    15:00 +24°C° 0 mm 1 mps 557 mmHg 25%
    16:00 +23°C° 0 mm 1 mps 557 mmHg 31%
    17:00 +22°C° 0 mm 1 mps 556 mmHg 37%
    18:00 +20°C° 0 mm 1 mps 555 mmHg 43%
    19:00 +16°C° 0 mm 1 mps 554 mmHg 50%
    20:00 +14°C° 0 mm 1 mps 553 mmHg 57%
    21:00 +14°C° 0 mm 1 mps 553 mmHg 57%
    22:00 +13°C° 0 mm 1 mps 553 mmHg 57%
    23:00 +13°C° 0 mm 1 mps 553 mmHg 57%

    Tomorrow, 29 May, Friday

    Time Temperature Precipitation Wind Pressure Humidity
    00:00 +11°C° 0 mm 0 mps 553 mmHg 57%
    01:00 +11°C° 0 mm 0 mps 552 mmHg 57%
    02:00 +10°C° 0 mm 0 mps 552 mmHg 56%
    03:00 +10°C° 0 mm 0 mps 552 mmHg 57%
    04:00 +10°C° 0 mm 0 mps 552 mmHg 58%
    05:00 +9°C° 0 mm 0 mps 552 mmHg 59%
    06:00 +11°C° 0 mm 0 mps 553 mmHg 53%
    07:00 +13°C° 0 mm 0 mps 555 mmHg 48%
    08:00 +16°C° 0 mm 1 mps 556 mmHg 43%
    09:00 +19°C° 0 mm 1 mps 557 mmHg 37%
    10:00 +21°C° 0 mm 1 mps 558 mmHg 31%
    11:00 +22°C° 0 mm 1 mps 559 mmHg 25%
    12:00 +23°C° 0 mm 1 mps 558 mmHg 24%
    13:00 +24°C° 0 mm 1 mps 558 mmHg 23%
    14:00 +25°C° 0 mm 1 mps 557 mmHg 22%
    15:00 +24°C° 0.1 mm 1 mps 557 mmHg 27%
    16:00 +23°C° 0.1 mm 2 mps 556 mmHg 33%
    17:00 +23°C° 0.1 mm 2 mps 556 mmHg 38%
    18:00 +19°C° 0 mm 2 mps 555 mmHg 45%
    19:00 +17°C° 0 mm 2 mps 554 mmHg 52%
    20:00 +15°C° 0 mm 2 mps 553 mmHg 59%
    21:00 +14°C° 0 mm 1 mps 553 mmHg 60%
    22:00 +14°C° 0 mm 1 mps 553 mmHg 61%
    23:00 +13°C° 0 mm 1 mps 553 mmHg 62%

    Day after tomorrow, 30 May, Saturday

    Time Temperature Precipitation Wind Pressure Humidity
    00:00 +13°C° 0 mm 1 mps 553 mmHg 61%
    01:00 +13°C° 0 mm 1 mps 553 mmHg 60%
    02:00 +12°C° 0 mm 1 mps 553 mmHg 58%
    03:00 +12°C° 0 mm 1 mps 552 mmHg 57%
    04:00 +12°C° 0 mm 1 mps 552 mmHg 57%
    05:00 +11°C° 0 mm 1 mps 552 mmHg 56%
    06:00 +12°C° 0 mm 1 mps 553 mmHg 52%
    07:00 +14°C° 0 mm 2 mps 554 mmHg 48%
    08:00 +15°C° 0 mm 2 mps 555 mmHg 44%
    09:00 +18°C° 0 mm 1 mps 556 mmHg 39%
    10:00 +20°C° 0 mm 1 mps 557 mmHg 35%
    11:00 +21°C° 0 mm 1 mps 557 mmHg 30%
    12:00 +22°C° 0 mm 1 mps 557 mmHg 31%
    13:00 +23°C° 0 mm 2 mps 557 mmHg 31%
    14:00 +23°C° 0 mm 2 mps 556 mmHg 32%
    15:00 +23°C° 0 mm 2 mps 556 mmHg 37%
    16:00 +21°C° 0 mm 2 mps 555 mmHg 42%
    17:00 +20°C° 0 mm 2 mps 554 mmHg 47%
    18:00 +18°C° 0 mm 2 mps 554 mmHg 53%
    19:00 +16°C° 0 mm 2 mps 553 mmHg 58%
    20:00 +14°C° 0 mm 2 mps 552 mmHg 64%
    21:00 +14°C° 0 mm 2 mps 553 mmHg 60%
    22:00 +14°C° 0 mm 2 mps 553 mmHg 56%
    23:00 +13°C° 0 mm 2 mps 553 mmHg 52%

    31 May, Sunday

    Time Temperature Precipitation Wind Pressure Humidity
    00:00 +13°C° 0 mm 2 mps 553 mmHg 49%
    01:00 +12°C° 0 mm 2 mps 552 mmHg 46%
    02:00 +12°C° 0 mm 1 mps 552 mmHg 43%
    03:00 +11°C° 0 mm 1 mps 552 mmHg 42%
    04:00 +11°C° 0 mm 1 mps 552 mmHg 41%
    05:00 +10°C° 0 mm 1 mps 551 mmHg 40%
    06:00 +12°C° 0 mm 1 mps 553 mmHg 39%
    07:00 +13°C° 0 mm 1 mps 554 mmHg 38%
    08:00 +15°C° 0 mm 1 mps 555 mmHg 36%
    09:00 +16°C° 0 mm 1 mps 556 mmHg 34%
    10:00 +19°C° 0 mm 1 mps 557 mmHg 31%
    11:00 +20°C° 0 mm 2 mps 558 mmHg 29%
    12:00 +21°C° 0 mm 2 mps 557 mmHg 31%
    13:00 +21°C° 0 mm 2 mps 557 mmHg 32%
    14:00 +23°C° 0 mm 2 mps 556 mmHg 34%
    15:00 +21°C° 0 mm 2 mps 555 mmHg 40%
    16:00 +20°C° 0 mm 2 mps 555 mmHg 46%
    17:00 +19°C° 0 mm 2 mps 554 mmHg 51%
    18:00 +18°C° 0 mm 2 mps 554 mmHg 57%
    19:00 +16°C° 0 mm 2 mps 553 mmHg 63%
    20:00 +14°C° 0 mm 2 mps 553 mmHg 69%
    21:00 +14°C° 0 mm 1 mps 553 mmHg 71%
    22:00 +13°C° 0 mm 1 mps 553 mmHg 74%
    23:00 +13°C° 0 mm 1 mps 554 mmHg 77%

    1 June, Monday

    Time Temperature Precipitation Wind Pressure Humidity
    00:00 +12°C° 0 mm 1 mps 554 mmHg 77%
    01:00 +12°C° 0 mm 1 mps 553 mmHg 77%
    02:00 +12°C° 0 mm 1 mps 553 mmHg 77%
    03:00 +11°C° 0 mm 1 mps 553 mmHg 78%
    04:00 +11°C° 0 mm 1 mps 553 mmHg 79%
    05:00 +11°C° 0 mm 1 mps 552 mmHg 80%
    06:00 +12°C° 0 mm 1 mps 553 mmHg 75%
    07:00 +13°C° 0 mm 1 mps 554 mmHg 69%
    08:00 +14°C° 0 mm 1 mps 555 mmHg 64%
    09:00 +16°C° 0 mm 1 mps 556 mmHg 58%
    10:00 +18°C° 0 mm 1 mps 557 mmHg 53%
    11:00 +20°C° 0 mm 1 mps 558 mmHg 47%
    12:00 +21°C° 0.1 mm 1 mps 557 mmHg 45%
    13:00 +21°C° 0.1 mm 1 mps 556 mmHg 44%
    14:00 +22°C° 0.1 mm 1 mps 556 mmHg 42%
    15:00 +21°C° 0 mm 2 mps 556 mmHg 43%
    16:00 +21°C° 0 mm 2 mps 556 mmHg 43%
    17:00 +20°C° 0 mm 3 mps 555 mmHg 44%
    18:00 +18°C° 0 mm 2 mps 555 mmHg 52%
    19:00 +17°C° 0 mm 2 mps 555 mmHg 61%
    20:00 +15°C° 0 mm 2 mps 555 mmHg 69%
    21:00 +14°C° 0 mm 2 mps 555 mmHg 67%
    22:00 +13°C° 0 mm 1 mps 555 mmHg 66%
    23:00 +13°C° 0 mm 1 mps 555 mmHg 64%

    2 June, Tuesday

    Time Temperature Precipitation Wind Pressure Humidity
    00:00 +12°C° 0 mm 1 mps 554 mmHg 63%
    01:00 +11°C° 0 mm 1 mps 554 mmHg 62%
    02:00 +11°C° 0 mm 1 mps 553 mmHg 61%
    03:00 +10°C° 0 mm 1 mps 553 mmHg 60%
    04:00 +10°C° 0 mm 1 mps 552 mmHg 58%
    05:00 +8°C° 0 mm 0 mps 552 mmHg 56%
    06:00 +11°C° 0 mm 1 mps 553 mmHg 51%
    07:00 +12°C° 0 mm 1 mps 555 mmHg 45%
    08:00 +14°C° 0 mm 1 mps 556 mmHg 39%
    09:00 +15°C° 0 mm 1 mps 556 mmHg 36%
    10:00 +18°C° 0 mm 1 mps 557 mmHg 32%
    11:00 +19°C° 0 mm 1 mps 558 mmHg 29%
    12:00 +20°C° 0 mm 1 mps 557 mmHg 30%
    13:00 +21°C° 0 mm 1 mps 557 mmHg 31%
    14:00 +22°C° 0 mm 1 mps 556 mmHg 33%
    15:00 +21°C° 0 mm 1 mps 556 mmHg 35%
    16:00 +21°C° 0 mm 1 mps 555 mmHg 37%
    17:00 +21°C° 0 mm 1 mps 555 mmHg 38%
    18:00 +19°C° 0 mm 1 mps 554 mmHg 49%
    19:00 +16°C° 0 mm 2 mps 554 mmHg 59%
    20:00 +14°C° 0 mm 2 mps 553 mmHg 69%
    21:00 +13°C° 0 mm 2 mps 553 mmHg 71%
    22:00 +13°C° 0 mm 2 mps 553 mmHg 73%
    23:00 +12°C° 0 mm 2 mps 553 mmHg 74%
    Show more